I2HLY-3 Weather Reports


Display with metric or nautical units.
time (UTC)temp
F
wind
direction
speed
MPH
gust
MPH
rain 1hr
in
rain 24hr
in
rain mn
in
humidity
%
barometer
mb
20260901080232 76 128 3.0 7.0 0.00 0.00 0.00 76 1016.9
20260901074735 75 80 2.0 5.0 0.00 0.00 0.00 78 1016.8
20260901071734 74 58 2.0 9.0 0.00 0.00 0.00 78 1016.7
20260901064723 75 76 3.0 9.0 0.00 0.00 0.00 77 1016.5
20260901063219 74 62 4.0 7.0 0.00 0.00 0.00 77 1016.4
20260901061721 73 45 1.0 5.0 0.00 0.00 0.00 79 1016.3
20260901060231 72 40 3.0 5.0 0.00 0.00 0.00 79 1016.1
20260901053235 71 19 3.0 9.0 0.00 0.00 0.00 80 1015.9
20260901051725 70 85 5.0 10.0 0.00 0.00 0.00 82 1015.6
20260901050237 68 84 3.0 8.0 0.00 0.00 0.00 91 1015.4
20260901044736 64 63 0.0 3.0 0.00 0.00 0.00 94 1015.0
20260901043231 63 335 0.0 0.0 0.00 0.00 0.00 94 1014.8
20260901041720 63 335 0.0 0.0 0.00 0.00 0.00 94 1014.6
20260901040228 63 335 0.0 2.0 0.00 0.00 0.00 93 1014.4
20260901034720 64 335 0.0 1.0 0.00 0.00 0.00 93 1014.3
20260901033234 64 335 0.0 1.0 0.00 0.00 0.00 93 1014.2
20260901031719 64 335 0.0 0.0 0.00 0.00 0.00 93 1013.9
20260901030228 64 334 0.0 0.0 0.00 0.00 0.00 92 1013.8
20260901024732 65 334 0.0 1.0 0.00 0.00 0.00 92 1013.8
20260901023218 65 335 1.0 3.0 0.00 0.00 0.00 92 1013.8
20260901021729 65 335 0.0 0.0 0.00 0.00 0.00 92 1013.7
20260901020228 65 335 0.0 0.0 0.00 0.00 0.00 92 1013.7
20260901014727 66 335 0.0 0.0 0.00 0.00 0.00 92 1013.6
20260901013222 66 334 1.0 3.0 0.00 0.00 0.00 92 1013.6
20260901011722 66 336 1.0 2.0 0.00 0.00 0.00 91 1013.6
20260901010236 66 336 0.0 3.0 0.00 0.00 0.00 91 1013.6
20260901004725 67 248 0.0 2.0 0.00 0.00 0.00 91 1013.5
20260901003232 67 248 0.0 2.0 0.00 0.00 0.00 91 1013.5
20260901001721 67 249 0.0 0.0 0.00 0.00 0.00 90 1013.5
20260901000229 67 248 0.0 1.0 0.00 0.00 0.00 90 1013.5
20260831234722 68 248 0.0 0.0 0.00 0.00 0.00 90 1013.4
20260831233228 68 248 0.0 0.0 0.00 0.00 0.00 89 1013.4
20260831231727 68 249 0.0 0.0 0.00 0.00 0.00 89 1013.3
20260831230228 69 248 0.0 0.0 0.00 0.00 0.00 88 1013.2
20260831224719 69 248 0.0 0.0 0.00 0.00 0.00 88 1013.2
20260831223233 69 249 0.0 1.0 0.00 0.00 0.00 86 1013.1
20260831221724 70 248 0.0 2.0 0.00 0.00 0.00 85 1013.0
20260831220228 70 248 0.0 0.0 0.00 0.00 0.00 84 1012.9
20260831214732 71 248 0.0 0.0 0.00 0.00 0.00 82 1012.9
20260831213234 72 248 0.0 1.0 0.00 0.00 0.00 82 1012.8
20260831211737 72 248 1.0 4.0 0.00 0.00 0.00 80 1012.6
20260831210224 73 306 1.0 2.0 0.00 0.00 0.00 77 1012.6
20260831204720 74 306 0.0 3.0 0.00 0.00 0.00 77 1012.5
20260831203228 72 304 3.0 5.0 0.00 0.00 0.00 79 1012.4
20260831201738 72 193 0.0 4.0 0.00 0.00 0.00 81 1012.4
20260831200221 72 323 1.0 4.0 0.00 0.00 0.00 80 1012.0
20260831194737 73 168 0.0 1.0 0.00 0.00 0.00 79 1012.0
20260831193231 74 168 0.0 2.0 0.00 0.00 0.00 77 1012.0
20260831191722 74 168 0.0 0.0 0.00 0.00 0.00 75 1011.8
20260831190233 75 168 0.0 1.0 0.00 0.00 0.00 71 1011.8
20260831184720 76 168 0.0 1.0 0.00 0.00 0.00 70 1011.6
20260831183236 78 168 1.0 2.0 0.00 0.00 0.00 67 1011.4
20260831181738 80 168 1.0 2.0 0.00 0.00 0.00 64 1011.3
20260831180229 82 168 0.0 1.0 0.00 0.00 0.00 65 1011.1
20260831174738 84 168 0.0 2.0 0.00 0.00 0.00 57 1011.0
20260831173221 86 168 1.0 2.0 0.00 0.00 0.00 54 1011.1
20260831171728 88 168 2.0 4.0 0.00 0.00 0.00 49 1011.0
20260831170230 88 167 2.0 5.0 0.00 0.00 0.00 46 1011.0
20260831164730 89 290 1.0 2.0 0.00 0.00 0.00 46 1011.1
20260831163224 90 168 3.0 5.0 0.00 0.00 0.00 44 1011.1
20260831161725 90 159 2.0 5.0 0.00 0.00 0.00 46 1011.2
20260831160225 89 174 2.0 7.0 0.00 0.00 0.00 50 1011.3
20260831154736 89 181 2.0 6.0 0.00 0.00 0.00 48 1011.4
20260831153233 89 184 1.0 5.0 0.00 0.00 0.00 47 1011.4
20260831151736 89 214 3.0 7.0 0.00 0.00 0.00 48 1011.5
20260831150225 89 170 4.0 6.0 0.00 0.00 0.00 46 1011.6
20260831144737 88 211 3.0 8.0 0.00 0.00 0.00 48 1011.5
20260831143226 88 198 2.0 4.0 0.00 0.00 0.00 47 1011.6
20260831141725 88 196 2.0 8.0 0.00 0.00 0.00 47 1011.8
20260831140235 88 251 4.0 8.0 0.00 0.00 0.00 47 1011.7
20260831134725 88 106 1.0 6.0 0.00 0.00 0.00 47 1011.8
20260831133236 87 180 5.0 8.0 0.00 0.00 0.00 50 1011.9
20260831131728 87 290 2.0 4.0 0.00 0.00 0.00 49 1012.0
20260831130220 88 275 2.0 7.0 0.00 0.00 0.00 47 1012.2
20260831124728 88 168 5.0 8.0 0.00 0.00 0.00 50 1012.4
20260831123233 88 163 4.0 7.0 0.00 0.00 0.00 48 1012.5
20260831121738 89 208 1.0 5.0 0.00 0.00 0.00 49 1012.5
20260831120236 89 156 5.0 10.0 0.00 0.00 0.00 51 1012.6
20260831114736 89 203 3.0 9.0 0.00 0.00 0.00 50 1012.7
20260831113219 89 166 1.0 7.0 0.00 0.00 0.00 48 1012.8
20260831111733 88 163 2.0 6.0 0.00 0.00 0.00 50 1013.1
20260831110225 88 235 2.0 5.0 0.00 0.00 0.00 47 1013.2
20260831104735 88 191 4.0 10.0 0.00 0.00 0.00 49 1013.2
20260831103225 88 211 3.0 5.0 0.00 0.00 0.00 52 1013.2
20260831101736 87 143 4.0 9.0 0.00 0.00 0.00 50 1013.3
20260831100227 87 200 2.0 6.0 0.00 0.00 0.00 52 1013.4
20260831094731 87 148 4.0 6.0 0.00 0.00 0.00 53 1013.5
20260831093222 86 178 4.0 7.0 0.00 0.00 0.00 53 1013.6
20260831091734 85 215 2.0 7.0 0.00 0.00 0.00 57 1013.6
20260831090236 84 186 1.0 4.0 0.00 0.00 0.00 59 1013.8
20260831084731 84 138 1.0 5.0 0.00 0.00 0.00 59 1013.7
20260831083230 84 180 2.0 4.0 0.00 0.00 0.00 61 1013.6
20260831081727 83 179 1.0 4.0 0.00 0.00 0.00 62 1013.5